MUOS-5

Last updated on Thu Sep 10 2026 00:02:58 GMT+0000 (Coordinated Universal Time)

1 41622U 16041A 26252.56442822 -.00000172 00000+0 00000+0 0 9996 2 41622 2.0310 303.5567 0203584 260.7930 242.4711 1.00272367 37932
UTC large
Height (km)
Speed (km/s)
/
Latitude / Longitude
Inclination (degrees)
Orbital Period (minutes)
Azimuth
Elevation
Range (km)
Doppler Factor

Next 0 passes for location: London (51.5072 / 0.1276)

No passes found over London.
MUOS-5